Skip Page Navigation
NASA JPL Caltech
NASA Logo - Jet Propulsion Laboratory + View the NASA Portal
+ Near-Earth Object (NEO) Program
Search JPL
JPL Home Earth Solar System Stars & Galaxies Technology
JPL Solar System Dynamics
BODIES ORBITS EPHEMERIDES TOOLS PHYSICAL DATA DISCOVERY FAQ SITE MAP
JPL Small-Body Database Browser
Search: [ help ]  
(2008 OO8)
Classification: Apollo [NEO]          SPK-ID: 3422249
Ephemeris | Orbit Diagram | Orbital Elements | Physical Parameters | Close-Approach Data ]

[ hide orbit diagram ]
Orbit Diagram
Note: Make sure you have Java enabled on your browser to see the applet. This applet is provided as a 3D orbit visualization tool. The applet was implemented using 2-body methods, and hence should not be used for determining accurate long-term trajectories (over several years or decades) or planetary encounter circumstances. For accurate long-term ephemerides, please instead use our Horizons system.
Orbit Viewer

Additional Notes: the orbits shown in the applet are color coded. The planets are white lines, and the asteroid/comet is a blue line. The bright white line indicates the portion of the orbit that is above the ecliptic plane, and the darker portion is below the ecliptic plane. Likewise for the asteroid/comet orbit, the light blue indicates the portion above the ecliptic plane, and the dark blue the portion below the ecliptic plane.

Orbit Viewer applet originally written and kindly provided by Osamu Ajiki (AstroArts), and further modified by Ron Baalke (JPL).


Orbital Elements at Epoch 2456400.5 (2013-Apr-18.0) TDB
Reference: JPL 10 (heliocentric ecliptic J2000)
 Element Value Uncertainty (1-sigma)   Units 
e .5081274773805567 0.00065646  
a 2.050872025166964 0.0026866 AU
q 1.008767596588521 2.4882e-05 AU
i 6.369976215741425 0.0061354 deg
node 301.9335081026438 0.0025932 deg
peri 344.7855115028977 0.0027796 deg
M 223.7401673593165 1.1767 deg
tp 2456806.542617761827
(2014-May-29.04261776)
4.3043 JED
period 1072.769132042905
2.94
2.108
0.005771
d
yr
n .3355801255340388 0.00065941 deg/d
Q 3.092976453745408 0.0040518 AU
  Orbit Determination Parameters
   # obs. used (total)      37  
   data-arc span      25 days  
   first obs. used      2008-07-30  
   last obs. used      2008-08-24  
   planetary ephem.      DE405  
   SB-pert. ephem.      SB405-CPV-2  
   condition code      7  
   fit RMS      .51867  
   data source      ORB  
   producer      Otto Matic  
   solution date      2011-Sep-14 20:29:26  

Additional Information
 Earth MOID = .00420724 AU 
 T_jup = 3.612 
[ show covariance matrix ]

Ephemeris | Orbit Diagram | Orbital Elements | Physical Parameters | Close-Approach Data ]

Physical Parameter Table
Parameter Symbol Value Units Sigma Reference Notes
absolute magnitude H 25.222 mag .25623 10 autocmod 2.5a

[ show close-approach data ]
Ephemeris | Orbit Diagram | Orbital Elements | Physical Parameters | Close-Approach Data ]
ABOUT SSD CREDITS/AWARDS PRIVACY/COPYRIGHT GLOSSARY LINKS
FirstGov 2013-May-25 04:29 UT
(server date/time)  
NASA Home Page
Site Manager:   Donald K. Yeomans
Webmaster  Alan B. Chamberlin